Lancaster, CA

5:55 PM PDT on July 25, 2017 (GMT -0700)
Gen Fox

Weather History for KWJF - November, 2012

Change the Weather History Date:

Friday, November 23, 2012

  Actual Average Record
Temperature  
Mean Temperature 53 °F 48 °F  
Max Temperature 74 °F 64 °F 81 °F (1949)
Min Temperature 32 °F 33 °F 13 °F (1958)
Degree Days  
Heating Degree Days 12    
Month to date heating degree days 265  
Since 1 July heating degree days 357  
Cooling Degree Days 0    
Month to date cooling degree days 0  
Year to date cooling degree days 2282  
Growing Degree Days 4 (Base 50)    
Moisture  
Dew Point 23 °F    
Average Humidity 37    
Maximum Humidity 59    
Minimum Humidity 14    
Precipitation  
Precipitation 0.00 in 0.02 in 0.50 in (1965)
Month to date precipitation T 0.39  
Year to date precipitation 1.74 6.08  
Since 1 July precipitation 0.04  
Snow  
Snow 0.00 in - 0.00 in ()
Month to date snowfall 0.0  
Since 1 July snowfall 0.0  
Since 1 September snowfall 0.0  
Snow Depth 0.00 in    
Sea Level Pressure  
Sea Level Pressure 30.26 in    
Wind  
Wind Speed 4 mph (North)    
Max Wind Speed 13 mph    
Max Gust Speed 16 mph    
Visibility 10 miles    
Events      
T = Trace of Precipitation, MM = Missing Value Source: NWS Daily Summary

Daily Weather History Graph

Daily Weather History Graph

Search for Another Location

Airport or City:

Trip Planner

Search our weather history database for the weather conditions in past years. The results will help you decide how hot, cold, wet, or windy it might be!

Date:

Astronomy

Nov. 23, 2012 Rise Set
Actual Time 6:35 AM PST 4:43 PM PST
Civil Twilight 6:07 AM PST 5:10 PM PST
Nautical Twilight 5:36 AM PST 5:41 PM PST
Astronomical Twilight 5:06 AM PST 6:12 PM PST
Moon 1:52 PM PST (11/23) 2:07 AM PST (11/23)
Length of Visible Light 11h 03m
Length of Day
10h 08m
Waxing Gibbous, 80% of the Moon is Illuminated
Nov 23
Waxing Gibbous
Nov 28
Full
Dec 6
Last Quarter
Dec 13
New
Dec 19
First Quarter

Hourly Weather History & Observations

Time (PST) Temp. Windchill Dew Point Humidity Pressure Visibility Wind Dir Wind Speed Gust Speed Precip Events Conditions
12:56 AM 37.9 °F 33.5 °F 23.0 °F 55% 30.26 in 10.0 mi WNW 5.8 mph - N/A   Clear
1:56 AM 41.0 °F - 24.1 °F 51% 30.25 in 10.0 mi Calm Calm - N/A   Clear
2:56 AM 41.0 °F - 25.0 °F 53% 30.25 in 10.0 mi Calm Calm - N/A   Clear
3:56 AM 37.9 °F - 24.1 °F 57% 30.25 in 10.0 mi Calm Calm - N/A   Clear
4:56 AM 37.0 °F - 23.0 °F 57% 30.27 in 10.0 mi Calm Calm - N/A   Clear
5:56 AM 37.0 °F - 24.1 °F 59% 30.29 in 10.0 mi Calm Calm - N/A   Clear
6:56 AM 36.0 °F - 21.9 °F 57% 30.31 in 10.0 mi Calm Calm - N/A   Clear
7:56 AM 41.0 °F - 25.0 °F 53% 30.34 in 10.0 mi Calm Calm - N/A   Clear
8:56 AM 48.9 °F - 27.0 °F 43% 30.33 in 10.0 mi Calm Calm - N/A   Clear
9:56 AM 59.0 °F - 27.0 °F 29% 30.32 in 10.0 mi Calm Calm - N/A   Clear
10:56 AM 66.9 °F - 26.1 °F 21% 30.30 in 10.0 mi ENE 3.5 mph - N/A   Clear
11:56 AM 70.0 °F - 25.0 °F 18% 30.27 in 10.0 mi NE 5.8 mph - N/A   Clear
12:56 PM 72.0 °F - 23.0 °F 16% 30.24 in 10.0 mi ENE 8.1 mph - N/A   Clear
1:56 PM 73.9 °F - 21.9 °F 14% 30.21 in 10.0 mi ENE 8.1 mph 16.1 mph N/A   Clear
2:56 PM 73.0 °F - 21.9 °F 15% 30.20 in 10.0 mi NE 12.7 mph - N/A   Clear
3:56 PM 72.0 °F - 23.0 °F 16% 30.20 in 10.0 mi ENE 8.1 mph - N/A   Clear
4:56 PM 66.0 °F - 21.9 °F 19% 30.20 in 10.0 mi NE 3.5 mph - N/A   Clear
5:56 PM 60.1 °F - 21.9 °F 23% 30.22 in 10.0 mi ENE 3.5 mph - N/A   Clear
6:56 PM 48.0 °F - 18.0 °F 30% 30.25 in 10.0 mi WNW 6.9 mph - N/A   Clear
7:56 PM 46.9 °F - 19.0 °F 33% 30.26 in 10.0 mi WNW 9.2 mph - N/A   Clear
8:56 PM 45.0 °F 41.2 °F 19.0 °F 36% 30.26 in 10.0 mi West 6.9 mph - N/A   Clear
9:56 PM 46.0 °F 43.9 °F 19.9 °F 35% 30.25 in 10.0 mi WSW 4.6 mph - N/A   Clear
10:56 PM 41.0 °F 37.1 °F 18.0 °F 40% 30.25 in 10.0 mi WNW 5.8 mph - N/A   Clear
11:56 PM 39.0 °F 35.7 °F 19.0 °F 45% 30.24 in 10.0 mi WNW 4.6 mph - N/A   Clear